Terug naar catalogus

BREEZE-M R/B

ActiefHEO
NORAD 42935·ROCKET BODY·🇷🇺 Russia

Gelanceerd Sep 11, 2017 vanaf Baikonur Cosmodrome

Loading…

Volgende Passages (komende 24 uur)

TLE

VersSource: Space-Track

Epoch: Sep 14, 2026, 06:04 UTC

1 42935U 17053B   26257.25343911 -.00000141  00000-0  00000+0 0  9995
2 42935  23.6328  36.6895 5943898 353.8564   1.1210  2.19135350 72100

Volg BREEZE-M R/B in realtime met AllMySat

Download on the App Store